SWR8QE LSZH-EBBR

Flight info

Callsign SWR8QE
Flight time 0h 56m
Altitude 30000
Route VEBIT T10 TORPA DCT EDOPI DCT GIVOR DCT SORAL DCT IBERA DCT DIK Y37 BATTY
Aircraft A320/M-SDE3FGHIRWY/LB1

Departure

Time 2026-04-26 12:48
Airport Zürich Airport (LSZH)

Arrival

Time 2026-04-26 13:45
Airport Brussels Airport (EBBR)
Time Latitude Longitude Altitude Speed Heading
2026-04-26 12:07 47.45406 8.56118 1407 ft 0 kts 186°
2026-04-26 12:28 47.45407 8.56118 1407 ft 1 kts 186°
2026-04-26 12:28 47.45430 8.56120 1413 ft 4 kts 178°
2026-04-26 12:28 47.45456 8.56115 1412 ft 4 kts 161°
2026-04-26 12:28 47.45479 8.56097 1409 ft 4 kts 126°
2026-04-26 12:29 47.45485 8.56078 1408 ft 0 kts 96°
2026-04-26 12:34 47.45484 8.56098 1408 ft 8 kts 96°
2026-04-26 12:34 47.45478 8.56200 1411 ft 10 kts 83°
2026-04-26 12:35 47.45513 8.56282 1410 ft 8 kts 53°
2026-04-26 12:35 47.45545 8.56338 1413 ft 6 kts 50°
2026-04-26 12:35 47.45573 8.56387 1419 ft 7 kts 50°
2026-04-26 12:35 47.45596 8.56461 1414 ft 9 kts 88°
2026-04-26 12:36 47.45589 8.56562 1420 ft 10 kts 96°
2026-04-26 12:36 47.45581 8.56664 1418 ft 10 kts 96°
2026-04-26 12:36 47.45574 8.56764 1421 ft 10 kts 96°
2026-04-26 12:36 47.45567 8.56865 1420 ft 10 kts 96°
2026-04-26 12:37 47.45562 8.56938 1420 ft 0 kts 96°
2026-04-26 12:45 47.45562 8.56939 1420 ft 1 kts 96°
2026-04-26 12:45 47.45569 8.56988 1421 ft 8 kts 62°
2026-04-26 12:45 47.45625 8.57022 1425 ft 11 kts
2026-04-26 12:46 47.45666 8.56969 1424 ft 2 kts 277°
2026-04-26 12:46 47.45666 8.56965 1424 ft 0 kts 276°
2026-04-26 12:47 47.45694 8.56562 1416 ft 82 kts 276°
2026-04-26 12:48 47.45779 8.55372 1403 ft 149 kts 276°
2026-04-26 12:48 47.45900 8.53658 1721 ft 173 kts 279°
2026-04-26 12:48 47.46026 8.51876 2441 ft 177 kts 278°
2026-04-26 12:48 47.46160 8.50063 3226 ft 177 kts 279°
2026-04-26 12:49 47.46226 8.48247 3882 ft 180 kts 262°
2026-04-26 12:49 47.45580 8.46686 4385 ft 185 kts 212°
2026-04-26 12:49 47.44396 8.45725 4631 ft 209 kts 206°
2026-04-26 12:49 47.43120 8.44429 4889 ft 236 kts 224°
2026-04-26 12:50 47.42028 8.42409 5053 ft 269 kts 237°
2026-04-26 12:50 47.41069 8.39966 5684 ft 280 kts 240°
2026-04-26 12:50 47.40083 8.37481 6703 ft 280 kts 238°
2026-04-26 12:50 47.39036 8.35047 7570 ft 281 kts 237°
2026-04-26 12:51 47.38153 8.32460 8443 ft 284 kts 246°
2026-04-26 12:51 47.37320 8.29795 9272 ft 288 kts 243°
2026-04-26 12:51 47.36404 8.27155 10131 ft 290 kts 242°
2026-04-26 12:51 47.35520 8.24421 10624 ft 306 kts 253°
2026-04-26 12:52 47.35314 8.21210 10838 ft 328 kts 276°
2026-04-26 12:52 47.35606 8.17808 11336 ft 339 kts 277°
2026-04-26 12:52 47.35923 8.14345 12085 ft 342 kts 278°
2026-04-26 12:52 47.36242 8.10858 12860 ft 344 kts 278°
2026-04-26 12:53 47.36559 8.07348 13668 ft 347 kts 278°
2026-04-26 12:53 47.36874 8.03808 14406 ft 348 kts 278°
2026-04-26 12:53 47.37186 8.00250 15047 ft 352 kts 277°
2026-04-26 12:53 47.37496 7.96647 15673 ft 356 kts 277°
2026-04-26 12:54 47.37805 7.93017 16366 ft 357 kts 277°
2026-04-26 12:54 47.38112 7.89374 16990 ft 360 kts 277°
2026-04-26 12:54 47.38421 7.85700 17647 ft 362 kts 277°
2026-04-26 12:54 47.38734 7.82001 18270 ft 365 kts 277°
2026-04-26 12:55 47.39050 7.78268 18829 ft 368 kts 277°
2026-04-26 12:55 47.39369 7.74502 19376 ft 371 kts 277°
2026-04-26 12:55 47.39687 7.70716 19932 ft 373 kts 277°
2026-04-26 12:55 47.40004 7.66902 20481 ft 376 kts 277°
2026-04-26 12:56 47.40323 7.63055 21012 ft 379 kts 277°
2026-04-26 12:56 47.40642 7.59185 21550 ft 381 kts 277°
2026-04-26 12:56 47.40962 7.55282 22092 ft 384 kts 276°
2026-04-26 12:56 47.41281 7.51353 22623 ft 387 kts 276°
2026-04-26 12:57 47.41604 7.47402 23119 ft 389 kts 277°
2026-04-26 12:57 47.41929 7.43417 23604 ft 392 kts 277°
2026-04-26 12:57 47.42253 7.39408 24021 ft 395 kts 276°
2026-04-26 12:58 47.42901 7.31349 24194 ft 395 kts 277°
2026-04-26 12:58 47.43219 7.27380 24196 ft 395 kts 276°
2026-04-26 12:58 47.43538 7.23357 24197 ft 394 kts 276°
2026-04-26 12:58 47.43856 7.19332 24205 ft 395 kts 276°
2026-04-26 12:59 47.44174 7.15305 24207 ft 394 kts 276°
2026-04-26 12:59 47.44488 7.11284 24209 ft 394 kts 276°
2026-04-26 12:59 47.44802 7.07259 24209 ft 395 kts 277°
2026-04-26 12:59 47.45115 7.03230 24214 ft 395 kts 277°
2026-04-26 13:00 47.45428 6.99194 24215 ft 395 kts 277°
2026-04-26 13:00 47.45739 6.95162 24218 ft 395 kts 277°
2026-04-26 13:00 47.46050 6.91127 24220 ft 395 kts 277°
2026-04-26 13:00 47.46361 6.87093 24220 ft 395 kts 277°
2026-04-26 13:01 47.46668 6.83060 24222 ft 395 kts 277°
2026-04-26 13:01 47.46971 6.79023 24220 ft 395 kts 277°
2026-04-26 13:01 47.47446 6.75032 24220 ft 395 kts 287°
2026-04-26 13:01 47.48570 6.71342 24220 ft 395 kts 302°
2026-04-26 13:02 47.50318 6.68214 24214 ft 397 kts 317°
2026-04-26 13:02 47.52569 6.65868 24220 ft 397 kts 332°
2026-04-26 13:02 47.55162 6.64462 24217 ft 399 kts 347°
2026-04-26 13:02 47.57915 6.63860 24216 ft 400 kts 351°
2026-04-26 13:03 47.60676 6.63321 24214 ft 400 kts 351°
2026-04-26 13:03 47.63399 6.62782 24213 ft 400 kts 350°
2026-04-26 13:03 47.66157 6.62230 24210 ft 400 kts 350°
2026-04-26 13:03 47.68912 6.61674 24206 ft 400 kts 350°
2026-04-26 13:04 47.71669 6.61118 24204 ft 400 kts 350°
2026-04-26 13:04 47.74424 6.60560 24203 ft 399 kts 350°
2026-04-26 13:04 47.77178 6.60000 24199 ft 399 kts 350°
2026-04-26 13:04 47.79932 6.59441 24198 ft 400 kts 350°
2026-04-26 13:05 47.82684 6.58883 24205 ft 400 kts 350°
2026-04-26 13:05 47.85438 6.58323 24198 ft 399 kts 350°
2026-04-26 13:05 47.88189 6.57763 24194 ft 399 kts 350°
2026-04-26 13:05 47.90935 6.57205 24194 ft 399 kts 350°
2026-04-26 13:06 47.93686 6.56638 24194 ft 399 kts 349°
2026-04-26 13:06 47.96428 6.56020 24197 ft 399 kts 349°
2026-04-26 13:06 47.99165 6.55363 24197 ft 398 kts 348°
2026-04-26 13:06 48.01900 6.54688 24201 ft 398 kts 348°
2026-04-26 13:07 48.04634 6.54012 24205 ft 398 kts 348°
2026-04-26 13:07 48.07371 6.53338 24203 ft 398 kts 348°
2026-04-26 13:07 48.10108 6.52669 24195 ft 399 kts 348°
2026-04-26 13:07 48.12846 6.52007 24201 ft 399 kts 348°
2026-04-26 13:08 48.15585 6.51351 24204 ft 399 kts 348°
2026-04-26 13:08 48.18322 6.50694 24203 ft 399 kts 348°
2026-04-26 13:08 48.21061 6.50036 24211 ft 399 kts 348°
2026-04-26 13:08 48.23813 6.49374 24213 ft 399 kts 348°
2026-04-26 13:09 48.26538 6.48720 24235 ft 400 kts 348°
2026-04-26 13:09 48.29293 6.48054 24628 ft 402 kts 348°
2026-04-26 13:09 48.32058 6.47382 25059 ft 403 kts 348°
2026-04-26 13:09 48.34834 6.46706 25465 ft 405 kts 348°
2026-04-26 13:10 48.37620 6.46028 25852 ft 406 kts 348°
2026-04-26 13:10 48.40408 6.45353 26308 ft 406 kts 348°
2026-04-26 13:10 48.43194 6.44679 26733 ft 406 kts 348°
2026-04-26 13:10 48.45992 6.43996 27123 ft 408 kts 348°
2026-04-26 13:11 48.48797 6.43310 27500 ft 409 kts 348°
2026-04-26 13:11 48.51611 6.42626 27868 ft 411 kts 348°
2026-04-26 13:11 48.54441 6.41940 28216 ft 412 kts 348°
2026-04-26 13:11 48.57279 6.41252 28563 ft 414 kts 348°
2026-04-26 13:12 48.60127 6.40553 28909 ft 416 kts 348°
2026-04-26 13:12 48.63010 6.39843 29219 ft 417 kts 348°
2026-04-26 13:12 48.65878 6.39313 29520 ft 421 kts 355°
2026-04-26 13:12 48.68824 6.39422 29819 ft 425 kts
2026-04-26 13:13 48.71779 6.39727 30112 ft 427 kts
2026-04-26 13:13 48.74747 6.40034 30382 ft 428 kts
2026-04-26 13:13 48.77687 6.40335 30605 ft 430 kts
2026-04-26 13:13 48.80676 6.40639 30815 ft 432 kts
2026-04-26 13:14 48.83677 6.40943 31035 ft 433 kts
2026-04-26 13:14 48.86693 6.41245 31236 ft 435 kts
2026-04-26 13:14 48.89711 6.41546 31518 ft 434 kts
2026-04-26 13:14 48.92723 6.41849 31814 ft 434 kts
2026-04-26 13:15 48.95735 6.42154 32096 ft 434 kts
2026-04-26 13:15 48.98747 6.42464 32223 ft 432 kts
2026-04-26 13:15 49.03688 6.42976 32243 ft 421 kts
2026-04-26 13:16 49.10493 6.43491 32245 ft 416 kts 354°
2026-04-26 13:16 49.16128 6.41801 32241 ft 412 kts 340°
2026-04-26 13:17 49.20891 6.37273 32245 ft 409 kts 318°
2026-04-26 13:17 49.23036 6.34412 32235 ft 409 kts 318°
2026-04-26 13:18 49.29438 6.25749 32081 ft 410 kts 318°
2026-04-26 13:18 49.33691 6.19987 31554 ft 404 kts 318°
2026-04-26 13:19 49.35793 6.17141 31296 ft 402 kts 318°
2026-04-26 13:19 49.37884 6.14311 31065 ft 400 kts 318°
2026-04-26 13:19 49.39966 6.11489 30817 ft 399 kts 318°
2026-04-26 13:19 49.42042 6.08677 30571 ft 397 kts 318°
2026-04-26 13:20 49.44104 6.05878 30325 ft 395 kts 318°
2026-04-26 13:20 49.46158 6.03087 30049 ft 393 kts 318°
2026-04-26 13:20 49.48200 6.00307 29761 ft 391 kts 318°
2026-04-26 13:20 49.50232 5.97535 29475 ft 390 kts 318°
2026-04-26 13:21 49.52257 5.94769 29198 ft 388 kts 318°
2026-04-26 13:21 49.53590 5.92944 29015 ft 387 kts 318°
2026-04-26 13:21 49.56274 5.89265 28651 ft 385 kts 318°
2026-04-26 13:21 49.58270 5.86526 28378 ft 384 kts 318°
2026-04-26 13:22 49.60258 5.83798 28114 ft 382 kts 318°
2026-04-26 13:22 49.62244 5.81070 27841 ft 382 kts 318°
2026-04-26 13:22 49.64223 5.78347 27578 ft 381 kts 318°
2026-04-26 13:22 49.66194 5.75635 27318 ft 379 kts 318°
2026-04-26 13:23 49.67499 5.73836 27146 ft 378 kts 318°
2026-04-26 13:23 49.69457 5.71139 26891 ft 377 kts 318°
2026-04-26 13:23 49.71409 5.68450 26637 ft 376 kts 318°
2026-04-26 13:23 49.73356 5.65766 26385 ft 374 kts 318°
2026-04-26 13:24 49.75293 5.63086 26138 ft 373 kts 318°
2026-04-26 13:24 49.77219 5.60412 25891 ft 372 kts 318°
2026-04-26 13:24 49.79143 5.57744 25645 ft 371 kts 318°
2026-04-26 13:24 49.81058 5.55087 25402 ft 369 kts 318°
2026-04-26 13:25 49.82966 5.52433 25158 ft 368 kts 318°
2026-04-26 13:25 49.84867 5.49784 24946 ft 367 kts 318°
2026-04-26 13:25 49.86763 5.47138 24702 ft 366 kts 318°
2026-04-26 13:25 49.88673 5.44464 24449 ft 365 kts 318°
2026-04-26 13:26 49.90560 5.41824 24215 ft 366 kts 317°
2026-04-26 13:26 49.92449 5.39182 23984 ft 366 kts 318°
2026-04-26 13:26 49.94337 5.36544 23744 ft 365 kts 318°
2026-04-26 13:26 49.96194 5.33947 23472 ft 364 kts 317°
2026-04-26 13:27 49.98074 5.31316 23198 ft 363 kts 317°
2026-04-26 13:27 49.99944 5.28697 22931 ft 361 kts 317°
2026-04-26 13:27 50.01806 5.26081 22664 ft 360 kts 317°
2026-04-26 13:27 50.03661 5.23470 22405 ft 359 kts 317°
2026-04-26 13:28 50.05510 5.20865 22139 ft 358 kts 317°
2026-04-26 13:28 50.07352 5.18269 21877 ft 357 kts 317°
2026-04-26 13:28 50.09185 5.15682 21626 ft 355 kts 317°
2026-04-26 13:28 50.11015 5.13096 21370 ft 354 kts 317°
2026-04-26 13:29 50.12835 5.10520 21121 ft 353 kts 317°
2026-04-26 13:29 50.14647 5.07958 20873 ft 351 kts 317°
2026-04-26 13:29 50.16447 5.05413 20503 ft 346 kts 317°
2026-04-26 13:29 50.18223 5.02897 20069 ft 344 kts 317°
2026-04-26 13:30 50.19985 5.00394 19649 ft 341 kts 317°
2026-04-26 13:30 50.21734 4.97903 19203 ft 340 kts 317°
2026-04-26 13:30 50.23476 4.95420 18775 ft 339 kts 317°
2026-04-26 13:30 50.25213 4.92938 18309 ft 338 kts 317°
2026-04-26 13:31 50.26940 4.90471 17865 ft 335 kts 317°
2026-04-26 13:31 50.28656 4.88023 17438 ft 333 kts 317°
2026-04-26 13:31 50.30361 4.85589 17019 ft 331 kts 317°
2026-04-26 13:31 50.32056 4.83170 16603 ft 329 kts 317°
2026-04-26 13:32 50.33739 4.80763 16189 ft 327 kts 317°
2026-04-26 13:32 50.35413 4.78363 15783 ft 326 kts 317°
2026-04-26 13:32 50.37079 4.75967 15376 ft 325 kts 317°
2026-04-26 13:32 50.38742 4.73577 14960 ft 324 kts 317°
2026-04-26 13:33 50.40396 4.71200 14547 ft 323 kts 317°
2026-04-26 13:33 50.42051 4.68818 14138 ft 323 kts 317°
2026-04-26 13:33 50.43700 4.66438 13694 ft 321 kts 317°
2026-04-26 13:33 50.45340 4.64074 13270 ft 319 kts 317°
2026-04-26 13:34 50.46971 4.61721 12845 ft 317 kts 317°
2026-04-26 13:34 50.48588 4.59384 12431 ft 315 kts 317°
2026-04-26 13:34 50.50196 4.57055 12008 ft 314 kts 317°
2026-04-26 13:34 50.51258 4.55518 11733 ft 313 kts 317°
2026-04-26 13:35 50.53395 4.52419 11164 ft 312 kts 317°
2026-04-26 13:35 50.54971 4.50133 10741 ft 312 kts 317°
2026-04-26 13:35 50.56551 4.47838 10538 ft 304 kts 317°
2026-04-26 13:35 50.58074 4.45625 10406 ft 294 kts 317°
2026-04-26 13:36 50.59560 4.43463 10165 ft 288 kts 317°
2026-04-26 13:36 50.61023 4.41331 9944 ft 286 kts 316°
2026-04-26 13:36 50.62480 4.39205 9563 ft 284 kts 317°
2026-04-26 13:36 50.63945 4.37067 9179 ft 283 kts 317°
2026-04-26 13:37 50.65383 4.34966 8792 ft 282 kts 317°
2026-04-26 13:37 50.66799 4.32897 8409 ft 280 kts 317°
2026-04-26 13:37 50.68244 4.30788 8012 ft 279 kts 317°
2026-04-26 13:37 50.69664 4.28713 7628 ft 278 kts 317°
2026-04-26 13:38 50.71056 4.26675 7253 ft 276 kts 317°
2026-04-26 13:38 50.72459 4.24619 6879 ft 274 kts 317°
2026-04-26 13:38 50.73838 4.22594 6482 ft 265 kts 317°
2026-04-26 13:38 50.75160 4.20651 5984 ft 258 kts 317°
2026-04-26 13:39 50.76456 4.18743 5487 ft 250 kts 317°
2026-04-26 13:39 50.77705 4.16925 5130 ft 238 kts 321°
2026-04-26 13:39 50.79152 4.15866 4795 ft 227 kts 354°
2026-04-26 13:39 50.80664 4.16205 4471 ft 218 kts 26°
2026-04-26 13:40 50.81792 4.17705 4114 ft 211 kts 57°
2026-04-26 13:40 50.82424 4.19730 3790 ft 201 kts 64°
2026-04-26 13:40 50.82993 4.21721 3477 ft 196 kts 65°
2026-04-26 13:40 50.83537 4.23628 3178 ft 186 kts 64°
2026-04-26 13:41 50.84061 4.25450 2852 ft 177 kts 64°
2026-04-26 13:41 50.84549 4.27137 2632 ft 161 kts 64°
2026-04-26 13:41 50.84996 4.28675 2437 ft 148 kts 64°
2026-04-26 13:41 50.85418 4.30131 2265 ft 141 kts 65°
2026-04-26 13:42 50.85823 4.31530 2083 ft 138 kts 64°
2026-04-26 13:42 50.86224 4.32906 1887 ft 137 kts 64°
2026-04-26 13:42 50.86621 4.34268 1705 ft 135 kts 63°
2026-04-26 13:42 50.87012 4.35620 1524 ft 135 kts 64°
2026-04-26 13:43 50.87402 4.36967 1346 ft 135 kts 64°
2026-04-26 13:43 50.87792 4.38313 1159 ft 134 kts 63°
2026-04-26 13:43 50.88179 4.39651 990 ft 133 kts 63°
2026-04-26 13:43 50.88562 4.40978 811 ft 132 kts 64°
2026-04-26 13:44 50.88946 4.42310 644 ft 133 kts 64°
2026-04-26 13:44 50.89335 4.43652 453 ft 135 kts 64°
2026-04-26 13:44 50.89731 4.45005 288 ft 136 kts 64°
2026-04-26 13:44 50.90122 4.46364 141 ft 132 kts 64°
2026-04-26 13:45 50.90449 4.47491 123 ft 89 kts 64°
2026-04-26 13:45 50.90630 4.48125 118 ft 37 kts 65°
2026-04-26 13:45 50.90621 4.48395 118 ft 21 kts 117°
2026-04-26 13:45 50.90592 4.48473 121 ft 0 kts 121°
2026-04-26 13:46 50.90590 4.48477 121 ft 4 kts 121°
2026-04-26 13:47 50.90547 4.48596 118 ft 19 kts 120°
2026-04-26 13:47 50.90562 4.48785 118 ft 19 kts 66°
2026-04-26 13:47 50.90617 4.48979 119 ft 17 kts 65°
2026-04-26 13:47 50.90638 4.49132 119 ft 12 kts 121°
2026-04-26 13:48 50.90577 4.49186 121 ft 10 kts 155°
2026-04-26 13:48 50.90502 4.49238 121 ft 12 kts 156°
2026-04-26 13:48 50.90426 4.49288 123 ft 11 kts 167°
2026-04-26 13:48 50.90372 4.49217 123 ft 15 kts 242°
2026-04-26 13:49 50.90333 4.49087 121 ft 8 kts 245°
2026-04-26 13:49 50.90314 4.49003 123 ft 8 kts 274°
2026-04-26 13:49 50.90353 4.48954 119 ft 6 kts 334°
2026-04-26 13:49 50.90376 4.48938 119 ft 3 kts 335°
2026-04-26 13:50 50.90382 4.48934 117 ft 0 kts 335°